Location: Archemont
(49.1579°N, 1.7598°E)
Time: 12:24:35
(UTC+00:00)

Transit 2A - Pass Details

Date: 19 April 2024
Orbit: 593 x 958 km, 66.7° (Epoch: 30 May)

Event Time Altitude Azimuth Distance (km) Brightness Sun altitude
Rises 08:50:05 0° 268° (W) 2,905 8.6 36.8°
Reaches altitude 10° 08:52:55 10° 287° (WNW) 2,047 7.8 37.2°
Maximum altitude 08:56:09 19° 332° (NNW) 1,617 7.5 37.7°
Drops below altitude 10° 08:59:36 10° 16° (NNE) 2,192 8.3 38.1°
Sets 09:02:46 0° 35° (NE) 3,193 9.2 38.6°
